Location: Killam
(52.7910°N, 111.8608°W)
Time: 02:17:38
(UTC+00:00)

Oscar 11 - Pass Details

Date: 17 March 2026
Orbit: 590 x 602 km, 97.8° (Epoch: 13 April)

Event Time Altitude Azimuth Distance (km) Brightness Sun altitude
Rises 11:31:36 0° 12° (NNE) 2,842 11.0 -19.2°
Reaches altitude 10° 11:33:48 10° 9° (N) 1,934 10.0 -18.9°
Maximum altitude 11:37:57 63° 288° (WNW) 664 6.9 -18.3°
Enters shadow 11:39:23 38° 223° (SW) 918 7.4 -18.1°
